User: anonymous
Location: Fort Wayne
(41.1310°N, 85.1290°W)
Time: 00:31:05
(UTC-04:00)
Language:

MetOp-A - Orbit

View from above orbital plane
View from above orbital plane
View from above satellite
View from above satellite

Ground track
Ground track

The orbit data is extracted from the following two-line orbital elements,

1 29499U 06044A   14213.46670382  .00000065  00000-0  49963-4 0  4131
2 29499 098.7224 272.4686 0001597 064.9568 357.7025 14.21479211403864
Epoch (UTC): 01 August 2014 11:12:03
Eccentricity: 0.0001597
inclination: 98.7224°
perigee height: 819 km
apogee height: 821 km
right ascension of ascending node: 272.4686°
argument of perigee: 64.9568°
revolutions per day: 14.21479211
mean anomaly at epoch: 357.7025°
orbit number at epoch: 40386

The dashed part of the orbit path shows where the satellite is in the earth's shadow,  

DLR